Wind_Speed
34 36 38 40 40 42 43 43 44 45 46 48 48 49 49 50 52 51 51 51 50 51 54 58 59 60 60 59 56 54 50 46 44 42 39 35 34 36 36 35 35 32 31 31 29 28 27 25 24 23 21 19 16 13 11 10 8 7 7 7 7 8 9
32 34 36 37 38 40 41 42 43 44 45 47 48 48 49 50 51 51 50 49 50 52 54 56 59 61 61 58 55 54 51 45 41 42 42 39 37 37 36 38 38 34 31 32 32 30 29 28 27 25 24 23 20 18 15 14 13 10 7 6 5 6 7
31 32 34 35 36 37 39 40 42 43 44 45 47 47 49 51 51 51 49 48 50 54 54 54 56 60 63 60 58 57 53 44 38 39 41 43 43 43 42 43 42 37 33 32 34 34 31 30 30 29 28 26 24 23 20 19 18 14 9 8 7 6 5
30 31 32 33 34 35 37 38 40 41 42 44 46 47 49 50 51 51 50 50 52 52 53 55 56 57 61 63 63 62 57 51 43 40 43 45 46 45 45 46 46 45 40 35 36 38 34 30 31 30 31 30 27 25 24 21 19 17 14 12 10 9 7
30 29 31 32 32 33 35 36 37 39 40 42 45 46 48 49 50 50 50 51 53 52 52 55 57 57 59 61 64 64 61 59 53 48 47 45 43 42 44 46 46 45 42 37 37 41 38 33 32 31 31 32 30 27 26 24 22 19 19 18 17 16 12
29 29 31 32 31 31 33 34 35 36 38 41 43 44 45 47 49 50 51 51 54 54 54 56 57 58 58 59 62 63 62 62 60 55 51 45 40 39 41 43 43 42 41 38 37 42 43 39 35 32 31 33 32 30 30 28 26 23 21 19 19 19 16
29 30 32 31 30 30 31 33 33 34 37 38 40 42 44 46 48 49 50 50 52 55 55 57 57 58 59 60 61 63 64 63 61 58 55 49 41 38 39 41 41 42 42 38 36 40 45 44 39 35 32 33 33 33 33 32 30 28 24 21 21 21 20
32 32 30 29 29 30 31 33 33 33 35 36 39 41 43 44 46 48 49 49 52 55 56 57 58 58 60 62 62 63 64 65 64 61 59 55 45 39 40 39 39 41 43 41 37 38 43 45 44 39 35 34 34 35 37 36 34 33 29 26 25 24 23
33 32 30 29 31 32 33 33 33 32 34 36 38 39 40 43 45 46 47 49 51 55 57 58 58 57 59 62 63 63 64 66 66 63 62 60 52 43 40 38 36 40 44 44 42 39 39 42 45 43 39 35 35 37 39 39 38 38 35 32 31 29 26
33 32 32 32 33 35 34 33 34 34 34 36 37 37 39 43 44 44 45 48 51 54 57 57 58 59 59 62 64 63 63 65 67 66 65 64 59 50 44 42 39 40 44 47 46 42 38 39 42 44 42 37 36 37 40 43 44 42 40 38 36 35 32
34 33 34 34 34 37 36 35 36 35 35 38 38 38 40 41 42 43 45 47 50 53 56 57 59 60 60 62 64 63 62 63 66 68 68 67 65 58 51 47 43 41 46 49 48 46 43 40 42 45 45 41 39 38 39 44 46 45 44 41 40 39 36
35 35 36 34 35 37 38 38 38 37 38 39 39 39 40 40 40 42 45 47 49 52 54 56 58 61 62 63 64 63 62 62 65 68 68 69 70 66 58 52 45 43 48 52 51 50 49 46 45 47 47 44 43 43 42 44 48 48 47 44 42 42 40
37 38 38 36 37 38 39 40 39 38 40 40 39 41 41 39 40 43 45 47 47 49 53 55 56 60 63 65 66 65 63 63 65 69 69 70 73 72 66 60 51 47 51 54 53 54 54 51 48 48 49 47 45 47 47 48 49 50 49 47 44 44 44
38 38 37 36 38 38 38 39 38 38 39 39 39 40 40 38 41 43 45 46 47 48 51 54 55 58 61 64 67 68 67 65 65 69 71 71 73 75 73 70 64 56 55 56 56 56 57 57 54 51 51 51 49 49 50 50 51 50 50 49 46 43 42
36 35 34 34 36 36 36 37 37 38 38 37 38 39 38 39 41 41 42 44 47 48 49 52 54 57 59 62 66 69 69 69 67 69 71 72 74 76 76 77 75 67 62 62 61 60 59 59 58 56 54 54 53 53 53 53 54 53 52 53 50 44 41
35 35 34 35 36 36 36 36 36 36 36 36 37 37 38 40 41 40 41 43 45 47 48 51 54 56 58 60 64 68 70 71 70 71 72 72 73 76 77 78 76 72 71 72 68 65 62 59 59 61 59 57 57 57 56 56 55 54 54 54 49 44 43
36 36 34 34 35 35 34 34 33 33 32 33 33 33 35 38 39 40 42 43 43 45 47 50 53 56 58 60 63 66 69 72 72 72 73 73 72 74 77 79 77 74 77 78 74 69 66 62 60 62 63 61 61 61 59 57 55 55 57 57 51 46 46
37 35 32 32 33 33 33 33 31 28 28 29 29 28 30 33 35 38 41 42 43 45 47 49 52 54 58 60 62 64 66 69 73 73 74 75 75 74 76 80 80 78 79 81 78 73 69 65 63 64 65 64 64 64 62 60 59 59 60 61 60 56 53
35 33 31 32 33 32 33 31 27 26 27 28 27 25 26 29 31 33 36 39 43 45 47 49 50 52 55 58 61 63 64 66 70 73 75 76 77 77 77 80 83 82 81 82 81 77 71 67 66 66 67 66 66 67 67 65 65 64 63 63 63 63 62
33 32 31 32 33 32 32 30 28 28 29 28 27 26 26 28 29 28 31 36 40 44 47 49 50 52 53 55 58 61 63 65 67 71 74 76 79 80 80 80 82 84 83 84 84 80 72 68 68 68 67 68 68 69 70 71 70 68 67 66 65 65 65
34 33 32 33 33 32 31 31 31 30 28 28 29 29 29 30 29 28 31 34 37 40 44 47 50 51 52 53 55 57 60 64 67 69 72 75 78 81 83 83 83 84 85 85 86 85 78 71 70 70 67 67 69 70 72 74 74 73 72 71 69 68 69
34 34 34 34 34 33 32 33 33 30 29 30 32 31 31 31 30 30 33 35 36 38 41 44 48 51 53 53 53 54 57 61 64 68 70 72 75 78 81 83 85 86 86 85 86 88 86 81 77 74 71 68 69 70 71 72 74 75 76 75 73 72 73
35 34 34 35 35 33 33 33 33 32 32 33 34 33 33 33 32 33 35 36 37 38 39 41 44 48 52 54 53 53 55 58 61 64 68 70 73 75 78 81 83 85 86 86 85 86 90 91 88 83 79 75 74 74 72 71 72 73 75 75 73 72 74
35 35 35 35 35 34 35 35 34 34 36 36 35 35 35 35 34 35 37 38 38 38 38 39 42 46 50 53 53 53 53 55 58 60 64 67 70 72 75 77 80 82 84 87 87 87 90 94 95 92 88 85 83 81 76 72 72 73 74 74 73 72 73
35 35 35 36 34 34 37 36 35 37 39 38 36 36 36 36 36 37 39 39 39 39 39 38 40 44 48 51 53 53 52 54 55 57 59 62 65 67 71 74 76 79 81 85 88 89 91 93 96 97 96 93 91 88 84 79 77 76 74 75 76 75 74
35 34 35 35 33 33 37 37 36 39 41 39 37 37 36 37 38 39 40 40 39 40 40 39 39 42 45 49 51 52 52 53 54 54 56 58 60 62 65 69 72 75 78 82 85 89 91 93 94 97 99 99 98 95 91 88 85 82 79 78 78 78 78
34 33 33 33 32 33 37 38 39 41 41 38 36 36 36 38 40 40 40 40 40 40 40 40 39 40 43 47 49 50 51 52 52 53 54 55 57 58 59 62 67 71 75 79 83 87 90 92 93 95 98 101 102 101 98 95 93 90 86 82 81 80 80
33 32 32 32 32 34 36 38 39 40 39 36 35 35 36 38 41 40 40 40 41 40 40 41 40 40 41 45 48 49 50 50 51 52 52 53 54 55 56 57 60 65 70 75 80 84 87 90 92 93 96 99 103 104 103 101 99 97 92 87 85 84 82
32 32 32 32 33 33 35 38 39 38 36 35 34 34 35 38 40 41 41 41 42 42 41 41 41 41 41 43 46 48 48 49 50 51 51 51 51 52 54 54 56 59 64 70 75 79 84 89 91 93 94 96 100 104 105 105 104 101 98 94 91 88 86
31 32 33 33 33 32 33 36 38 36 34 33 34 34 35 37 40 41 42 43 44 44 43 41 41 41 41 43 45 47 47 48 49 50 50 49 49 50 51 52 53 55 59 64 69 74 80 85 89 92 93 94 95 99 103 106 106 104 102 100 98 95 92
31 33 33 32 32 31 32 35 36 34 33 33 34 34 35 37 40 42 42 44 44 44 43 42 41 41 41 42 45 46 47 47 49 49 50 49 49 50 51 52 53 54 56 60 64 69 74 79 84 89 92 93 93 93 97 102 105 105 104 103 103 102 100
31 33 33 31 30 30 31 34 35 33 33 34 35 35 35 37 40 41 41 42 42 42 41 40 40 40 41 42 44 46 47 48 49 49 50 50 50 51 51 52 53 55 56 58 61 64 69 74 78 83 88 91 93 92 93 95 100 103 105 105 104 105 105
31 32 32 30 29 30 31 33 34 33 34 34 35 36 36 37 38 39 39 39 39 39 39 39 38 39 39 40 42 44 46 48 49 50 51 51 51 50 50 50 51 53 55 57 58 61 65 69 73 77 81 86 90 92 93 93 94 97 100 103 104 106 106
30 32 31 30 29 30 31 32 34 34 34 34 35 36 37 37 36 36 36 36 36 36 36 36 36 37 38 38 40 43 45 47 49 50 51 51 51 50 50 49 49 50 52 55 56 58 61 65 69 72 76 80 84 88 91 93 94 95 96 97 100 103 106
29 31 31 30 29 29 30 32 34 34 34 34 36 37 36 35 34 32 32 33 34 34 34 34 35 36 36 37 39 42 44 47 49 50 51 51 51 51 50 50 50 50 51 53 55 57 58 61 64 67 72 75 79 82 87 90 93 95 96 96 96 98 102
28 31 31 30 29 29 30 33 34 34 34 35 35 36 35 33 32 30 29 30 31 32 33 33 33 34 35 36 38 40 42 45 47 48 49 50 50 51 51 51 51 52 52 53 55 56 58 60 61 64 67 71 75 78 81 85 89 92 94 95 95 95 97
29 31 30 29 29 30 31 33 33 34 34 35 35 34 33 31 30 29 27 27 28 30 32 32 33 33 34 34 36 38 40 42 44 45 47 48 49 51 51 52 52 52 53 54 55 57 59 61 62 63 65 68 72 75 78 81 84 87 89 92 93 94 95
Wind_Direction
228 229 230 230 230 231 231 231 230 229 229 230 230 230 229 228 226 225 225 225 223 223 224 222 219 216 215 216 218 220 223 226 229 228 226 226 230 233 229 228 232 232 234 238 235 230 231 231 230 232 235 238 240 245 249 254 266 280 299 318 334 344 354
228 229 230 231 230 231 232 231 231 230 230 231 230 230 230 229 227 224 224 225 224 224 225 224 222 220 218 218 222 225 227 230 234 234 232 231 232 233 229 226 229 229 229 237 240 233 230 232 232 230 233 236 236 235 232 233 240 243 256 279 298 317 335
228 229 230 231 231 232 232 232 232 231 230 232 230 230 230 230 228 225 222 222 223 224 225 225 224 222 221 220 221 224 226 227 231 233 231 231 231 230 228 225 227 229 231 237 239 235 232 233 231 228 228 232 235 234 227 218 218 218 225 251 268 276 292
227 229 231 231 231 232 233 233 233 232 231 232 232 230 230 230 228 226 223 222 223 224 224 224 225 224 223 222 221 222 223 222 222 223 223 226 229 229 228 229 232 235 239 240 234 230 230 228 228 227 226 227 231 235 236 230 221 206 198 214 236 244 248
227 230 233 232 231 233 234 234 235 234 233 234 233 231 231 231 229 227 225 223 224 224 223 224 225 225 225 224 224 223 223 222 221 221 221 223 227 230 230 232 234 235 238 239 231 226 223 221 222 225 226 227 229 233 237 237 234 220 200 199 214 221 223
230 231 235 234 233 234 236 236 235 236 236 236 235 234 233 232 229 227 225 224 225 225 225 225 225 225 225 225 225 225 224 223 224 222 220 219 223 228 231 232 233 232 233 237 233 226 222 218 219 222 224 228 229 231 233 233 234 232 218 210 218 221 217
233 234 237 237 237 238 239 239 237 236 237 237 237 237 236 234 230 227 225 224 226 226 226 226 224 224 225 224 224 224 222 223 224 223 219 217 219 223 224 226 227 227 228 231 230 226 223 219 219 221 226 230 230 230 234 234 234 233 226 221 224 225 222
234 238 240 242 244 243 243 242 239 237 238 238 238 238 238 237 234 230 225 224 226 225 225 226 224 223 224 225 224 223 222 222 223 223 220 217 217 219 219 220 224 225 225 226 226 225 223 221 222 223 227 233 234 232 233 235 235 233 230 228 229 229 226
236 239 241 243 246 246 245 245 244 241 241 241 239 238 239 239 237 233 228 225 226 226 225 224 224 222 223 224 224 224 223 221 222 223 221 217 215 215 215 216 221 223 224 225 226 225 225 223 222 221 223 228 230 229 231 233 235 234 232 231 233 234 232
238 239 239 240 245 248 247 248 249 247 246 246 242 240 240 240 238 236 232 229 227 227 225 224 224 224 223 223 224 224 224 222 221 222 221 217 214 214 215 215 217 220 221 223 224 225 225 224 220 215 216 220 220 221 226 230 231 233 232 231 231 234 234
242 242 242 241 245 250 250 250 251 250 250 250 247 244 242 241 240 238 236 233 230 229 227 224 223 224 224 224 224 224 225 223 221 222 222 219 215 214 215 215 216 219 219 219 221 221 221 222 219 212 212 216 216 217 223 229 229 230 231 231 231 233 234
246 246 247 246 247 252 254 254 254 254 254 252 251 249 245 242 241 241 239 236 233 232 230 226 224 224 224 224 224 224 224 224 223 222 222 221 218 216 214 213 215 220 219 217 217 217 217 218 217 213 212 216 218 217 221 228 229 227 229 230 230 233 233
250 250 252 252 252 254 256 258 257 256 256 255 253 252 248 244 243 242 241 238 235 235 233 230 226 224 224 224 225 225 223 223 223 223 222 221 220 218 215 213 216 220 219 217 215 215 215 215 215 215 214 216 218 217 219 225 228 227 227 227 230 233 233
252 253 253 254 255 254 254 257 258 257 257 257 256 255 252 249 246 243 242 241 238 236 235 233 230 227 225 224 224 225 223 222 222 222 222 221 221 220 217 217 220 222 221 221 218 216 215 215 215 216 216 215 215 217 220 224 229 229 227 226 229 233 233
252 253 253 253 254 255 254 255 257 258 259 258 258 258 256 254 251 247 244 243 241 239 236 236 234 231 229 226 224 225 224 223 222 222 223 222 221 221 219 219 222 224 225 225 222 218 217 217 216 215 215 215 216 218 221 224 228 229 227 225 227 230 231
251 252 252 252 254 255 256 256 257 258 259 258 257 258 258 256 254 251 248 245 243 241 239 238 236 234 232 230 227 225 224 224 223 222 223 223 223 222 222 222 222 224 226 227 224 220 219 220 218 216 215 217 219 220 222 223 225 226 225 223 223 227 229
251 251 251 252 253 254 255 256 255 256 258 259 259 258 258 257 256 253 251 247 244 243 242 240 238 235 234 233 231 228 225 224 223 222 223 223 223 223 223 222 223 223 225 226 225 222 221 221 222 219 217 218 219 220 221 221 221 223 224 222 218 219 222
250 250 249 250 250 251 251 251 252 255 258 260 259 258 258 259 258 255 254 251 246 243 242 241 239 237 236 234 233 231 228 225 224 223 223 223 224 224 223 223 223 223 225 226 225 225 224 224 223 222 220 219 219 219 220 220 219 220 223 224 222 221 221
249 247 246 247 248 248 250 251 254 256 258 259 261 263 263 263 262 260 258 255 251 246 243 241 240 239 238 236 235 234 232 229 226 224 224 224 224 224 223 223 223 223 225 226 226 225 226 227 226 223 223 222 221 220 220 219 220 221 223 226 229 229 229
249 244 242 245 248 249 251 254 255 257 259 264 267 267 267 267 267 267 265 260 255 250 246 243 240 239 238 238 237 235 234 232 229 226 224 224 225 224 224 224 224 225 225 227 227 226 225 226 226 223 223 224 222 221 221 220 220 221 223 225 229 232 234
251 245 242 245 248 250 252 254 256 259 263 268 269 268 269 270 271 271 270 267 262 256 251 247 243 240 239 238 238 237 235 234 232 229 227 226 226 226 226 226 226 226 226 227 228 227 225 223 222 221 220 222 222 222 223 223 223 223 224 225 228 232 234
252 249 246 247 249 251 252 255 258 262 265 267 269 269 270 271 272 271 270 270 268 264 258 252 247 243 241 239 237 237 237 235 234 232 230 228 228 228 228 228 228 227 227 227 228 228 227 225 222 220 219 220 220 221 222 225 226 227 227 228 229 231 233
252 251 248 248 250 252 253 255 259 263 265 265 268 270 270 270 270 270 270 271 272 270 266 259 251 246 243 241 238 238 238 237 235 234 233 232 231 230 229 229 229 229 229 228 228 228 229 227 225 223 222 222 223 222 221 223 227 229 230 230 230 230 232
253 252 251 250 251 253 255 256 259 263 264 264 266 269 270 270 270 269 270 271 272 272 271 266 258 250 245 243 241 239 239 238 237 236 235 235 234 233 232 230 230 230 230 229 229 229 230 230 227 225 226 227 228 226 223 222 225 228 231 232 231 230 231
253 254 253 252 252 254 256 257 259 260 261 262 264 267 270 272 272 271 271 271 273 273 272 269 264 255 248 244 242 241 240 240 238 237 236 237 237 237 236 233 231 231 231 230 230 230 231 231 230 228 228 229 230 231 229 226 225 226 228 232 234 234 233
253 254 255 255 255 256 257 258 257 257 258 261 265 268 270 271 272 271 272 273 274 274 273 270 266 260 253 247 244 242 242 242 241 239 238 238 238 239 239 237 235 233 232 232 231 232 232 232 232 231 230 229 230 232 233 232 230 229 229 229 232 235 236
253 254 256 258 257 256 257 257 257 258 260 263 266 268 270 270 270 271 273 274 275 275 274 271 267 262 255 249 245 243 243 243 243 243 241 240 240 239 240 240 238 236 235 234 233 233 233 233 232 232 232 231 231 232 234 234 235 235 234 231 229 231 234
255 257 259 259 258 257 258 259 259 260 263 265 266 267 269 271 271 272 273 275 275 275 274 271 267 262 256 250 245 243 243 244 244 245 245 244 243 242 241 241 240 239 238 237 235 234 234 234 233 232 232 232 232 232 234 235 235 237 237 235 232 230 231
259 260 260 259 258 257 259 260 261 262 263 265 266 268 268 270 273 275 277 277 277 275 273 269 265 261 256 250 245 243 243 244 244 246 247 247 247 246 243 241 241 241 240 239 238 237 236 236 235 234 232 232 232 233 233 234 235 236 237 237 237 235 235
260 261 260 259 258 257 258 261 263 264 265 266 266 266 268 271 275 278 280 280 278 275 272 267 262 258 254 249 245 244 243 244 245 246 247 248 249 250 249 246 243 242 242 241 240 239 239 238 237 236 234 233 233 233 233 234 235 235 236 237 238 239 239
260 261 260 259 258 259 260 262 264 265 265 265 266 267 270 275 278 280 280 279 277 274 271 266 261 256 253 248 245 243 243 243 244 245 247 248 250 251 252 251 248 245 243 243 242 242 241 240 239 238 237 236 235 234 234 234 235 236 236 237 238 240 241
259 260 259 258 258 259 260 261 263 265 264 265 268 272 275 279 281 282 280 277 274 271 268 264 259 255 252 249 245 243 243 243 244 245 246 248 250 251 252 252 251 249 246 244 244 243 243 242 241 240 239 238 237 235 235 235 235 236 237 238 239 240 241
258 259 259 258 257 257 258 260 262 263 264 267 272 277 281 284 285 284 281 276 272 268 264 260 257 255 253 251 247 245 244 244 245 245 246 247 249 251 252 252 252 251 248 246 244 244 244 244 244 243 241 240 239 237 236 236 235 236 237 238 239 240 241
258 259 258 257 257 257 258 260 261 263 266 271 277 282 286 289 289 285 281 276 272 267 262 259 257 255 253 251 250 248 246 246 246 247 248 249 250 251 252 253 253 253 252 249 247 244 244 244 245 245 244 243 241 240 239 238 237 237 238 239 240 240 241
257 258 257 256 257 258 257 258 261 265 271 276 281 287 292 294 293 288 282 277 273 269 263 259 257 256 253 251 250 249 248 247 248 248 249 250 251 252 252 253 253 252 252 252 251 248 245 244 244 245 246 245 244 243 241 240 239 239 239 240 241 241 241
256 257 255 255 256 255 256 258 263 269 275 280 285 292 296 298 296 292 285 279 275 270 264 260 258 258 256 254 252 251 251 250 250 251 251 252 253 253 254 254 253 252 251 251 251 251 249 246 244 244 244 245 246 245 244 243 241 241 241 241 241 242 242
255 255 254 254 255 255 257 260 266 272 277 282 288 294 298 299 298 295 288 282 276 269 263 260 258 258 259 258 257 256 256 255 255 256 256 256 256 257 257 257 256 255 253 251 250 250 250 249 247 245 243 243 244 245 246 245 244 243 242 242 242 242 243
Height
10851 10852 10854 10856 10860 10862 10865 10868 10871 10873 10875 10877 10880 10884 10887 10889 10892 10899 10904 10908 10911 10913 10914 10918 10921 10926 10931 10934 10937 10941 10944 10947 10949 10952 10953 10955 10957 10959 10961 10965 10967 10971 10973 10975 10978 10981 10983 10985 10987 10988 10989 10989 10990 10990 10990 10990 10989 10990 10990 10991 10991 10990 10989
10847 10848 10850 10853 10856 10858 10860 10863 10866 10869 10871 10873 10876 10879 10882 10884 10888 10894 10900 10904 10906 10907 10909 10912 10916 10922 10927 10932 10936 10938 10941 10944 10946 10949 10951 10952 10953 10956 10958 10961 10964 10968 10971 10973 10975 10978 10981 10983 10985 10987 10987 10988 10988 10987 10986 10986 10986 10987 10988 10989 10990 10990 10990
10843 10845 10847 10850 10852 10854 10856 10858 10861 10864 10866 10868 10871 10875 10876 10878 10883 10889 10895 10897 10898 10900 10902 10906 10911 10915 10919 10924 10927 10928 10931 10936 10939 10942 10946 10947 10948 10951 10954 10957 10960 10963 10966 10969 10971 10974 10978 10980 10981 10984 10985 10986 10986 10985 10983 10981 10980 10982 10986 10988 10989 10990 10990
10841 10842 10844 10846 10849 10851 10852 10854 10856 10859 10862 10863 10865 10868 10870 10872 10878 10883 10888 10891 10892 10894 10896 10900 10904 10907 10910 10915 10918 10919 10922 10925 10927 10930 10933 10936 10939 10944 10949 10952 10955 10958 10961 10965 10967 10970 10974 10977 10978 10981 10982 10983 10984 10984 10983 10982 10981 10980 10981 10984 10988 10989 10990
10839 10840 10841 10843 10846 10847 10848 10851 10853 10855 10857 10858 10860 10863 10865 10868 10873 10878 10883 10886 10887 10889 10892 10895 10898 10902 10906 10911 10914 10915 10917 10917 10918 10921 10926 10931 10936 10941 10945 10948 10951 10954 10958 10962 10964 10966 10970 10973 10975 10977 10980 10981 10983 10983 10984 10983 10983 10982 10980 10981 10983 10986 10987
10837 10837 10837 10840 10842 10844 10845 10847 10849 10851 10853 10853 10855 10858 10860 10863 10867 10872 10877 10880 10882 10884 10887 10888 10892 10897 10901 10905 10907 10909 10912 10913 10915 10919 10924 10930 10935 10939 10942 10945 10948 10952 10956 10959 10961 10963 10966 10969 10971 10974 10977 10979 10980 10981 10982 10981 10982 10983 10983 10983 10983 10984 10985
10833 10833 10834 10837 10840 10841 10842 10843 10845 10847 10848 10849 10851 10853 10854 10857 10861 10865 10871 10876 10877 10878 10881 10883 10887 10891 10893 10895 10897 10901 10906 10909 10912 10916 10922 10927 10932 10935 10937 10940 10944 10948 10952 10955 10958 10960 10963 10966 10969 10972 10974 10976 10978 10979 10980 10980 10982 10983 10984 10984 10983 10983 10984
10829 10830 10833 10835 10836 10837 10838 10838 10841 10843 10844 10846 10847 10848 10850 10852 10855 10859 10866 10870 10870 10871 10874 10876 10879 10883 10885 10887 10890 10893 10899 10903 10906 10911 10917 10924 10929 10929 10931 10935 10940 10943 10947 10951 10954 10956 10959 10963 10967 10969 10971 10973 10975 10976 10978 10979 10981 10982 10983 10983 10982 10983 10984
10826 10828 10831 10832 10832 10831 10832 10834 10836 10839 10840 10841 10842 10844 10846 10847 10849 10854 10859 10862 10863 10864 10866 10870 10874 10877 10880 10882 10883 10887 10892 10897 10901 10905 10910 10917 10923 10924 10926 10930 10935 10939 10943 10946 10949 10951 10954 10957 10960 10964 10966 10968 10969 10972 10974 10977 10978 10980 10980 10981 10981 10982 10983
10823 10826 10827 10828 10827 10827 10829 10831 10832 10834 10836 10836 10837 10840 10841 10841 10844 10849 10852 10855 10856 10856 10859 10864 10869 10872 10874 10876 10877 10881 10886 10891 10896 10899 10904 10910 10917 10920 10921 10924 10929 10933 10937 10940 10943 10947 10949 10950 10953 10957 10961 10963 10964 10966 10969 10971 10973 10975 10976 10977 10978 10979 10980
10819 10821 10821 10824 10824 10823 10825 10827 10827 10829 10831 10831 10833 10835 10836 10837 10840 10843 10845 10847 10849 10850 10853 10859 10863 10865 10868 10870 10871 10875 10880 10886 10891 10894 10898 10904 10911 10915 10917 10919 10923 10926 10929 10934 10938 10942 10943 10945 10948 10952 10955 10958 10959 10961 10963 10965 10967 10970 10971 10973 10975 10976 10977
10815 10816 10816 10819 10820 10819 10820 10821 10822 10825 10825 10825 10828 10829 10831 10834 10836 10838 10838 10840 10843 10845 10847 10852 10856 10859 10862 10864 10865 10869 10874 10880 10884 10888 10892 10898 10903 10908 10911 10914 10916 10919 10922 10927 10932 10935 10938 10940 10943 10947 10950 10952 10954 10956 10958 10958 10960 10963 10966 10968 10971 10972 10974
10809 10810 10811 10814 10815 10815 10816 10816 10817 10820 10819 10820 10823 10823 10825 10830 10832 10831 10831 10834 10838 10840 10841 10846 10850 10853 10856 10858 10859 10862 10868 10873 10877 10880 10885 10890 10895 10900 10904 10907 10910 10912 10916 10920 10925 10928 10931 10935 10939 10941 10943 10945 10947 10950 10951 10952 10953 10956 10960 10963 10966 10968 10970
10803 10805 10808 10809 10809 10810 10812 10811 10812 10814 10813 10815 10817 10817 10821 10825 10825 10825 10827 10829 10832 10834 10835 10839 10843 10846 10849 10852 10853 10856 10861 10866 10870 10873 10877 10882 10886 10891 10897 10900 10903 10906 10910 10913 10918 10921 10924 10928 10932 10934 10935 10938 10941 10943 10945 10947 10949 10952 10956 10959 10961 10963 10966
10799 10801 10803 10804 10804 10805 10806 10807 10808 10809 10809 10811 10812 10813 10816 10818 10818 10820 10823 10824 10825 10828 10831 10833 10836 10839 10842 10844 10846 10849 10854 10859 10864 10866 10869 10874 10879 10883 10888 10892 10895 10900 10904 10905 10909 10913 10916 10920 10924 10926 10928 10931 10934 10936 10938 10941 10944 10947 10951 10953 10956 10959 10962
10795 10797 10799 10799 10800 10800 10801 10803 10804 10804 10804 10805 10807 10809 10810 10811 10812 10815 10817 10817 10819 10822 10825 10827 10828 10831 10834 10837 10839 10842 10847 10852 10857 10860 10863 10866 10870 10875 10880 10884 10889 10893 10895 10896 10901 10905 10909 10913 10916 10919 10921 10924 10927 10929 10931 10934 10938 10943 10946 10948 10952 10955 10958
10790 10792 10794 10795 10796 10796 10797 10798 10798 10799 10800 10800 10802 10804 10804 10805 10807 10809 10809 10811 10814 10816 10818 10819 10821 10823 10826 10829 10832 10835 10840 10845 10849 10853 10856 10859 10863 10867 10872 10877 10882 10883 10883 10889 10896 10900 10903 10907 10910 10913 10915 10916 10919 10921 10923 10927 10932 10936 10939 10943 10946 10947 10950
10785 10788 10790 10791 10791 10792 10792 10792 10793 10795 10796 10796 10797 10799 10800 10800 10801 10803 10803 10805 10807 10809 10810 10811 10813 10816 10819 10821 10825 10829 10833 10838 10842 10846 10849 10852 10855 10860 10864 10869 10872 10872 10875 10884 10891 10894 10897 10901 10903 10906 10908 10909 10911 10914 10917 10921 10925 10928 10931 10934 10937 10939 10942
10780 10784 10786 10786 10786 10787 10787 10788 10790 10791 10791 10791 10792 10794 10796 10795 10796 10798 10798 10798 10799 10800 10802 10804 10807 10809 10812 10815 10818 10822 10827 10831 10835 10838 10842 10845 10847 10851 10856 10860 10862 10864 10868 10876 10884 10889 10892 10894 10896 10899 10901 10903 10906 10908 10911 10914 10917 10920 10923 10925 10928 10932 10935
10776 10780 10782 10781 10781 10782 10783 10785 10786 10786 10786 10787 10788 10790 10791 10791 10792 10794 10792 10791 10791 10793 10794 10797 10800 10803 10806 10808 10812 10815 10819 10822 10826 10830 10834 10837 10840 10843 10848 10851 10854 10858 10862 10869 10876 10882 10886 10887 10889 10891 10894 10896 10899 10902 10904 10906 10909 10912 10916 10918 10920 10924 10927
10772 10774 10776 10776 10777 10779 10780 10780 10781 10781 10783 10784 10783 10785 10786 10786 10788 10789 10787 10784 10784 10786 10787 10790 10793 10796 10799 10801 10804 10807 10810 10813 10816 10821 10826 10829 10832 10835 10839 10843 10847 10851 10856 10862 10868 10872 10877 10880 10881 10883 10886 10888 10892 10895 10897 10899 10902 10905 10908 10911 10914 10916 10919
10767 10769 10772 10772 10773 10774 10776 10776 10776 10777 10780 10779 10778 10780 10781 10781 10783 10784 10781 10779 10779 10779 10781 10784 10787 10789 10791 10794 10797 10800 10802 10805 10808 10813 10817 10821 10824 10828 10831 10835 10839 10843 10849 10855 10860 10863 10867 10870 10871 10874 10877 10881 10885 10888 10890 10892 10894 10897 10900 10903 10906 10908 10910
10762 10765 10766 10767 10768 10770 10771 10771 10772 10773 10774 10774 10774 10775 10776 10777 10778 10777 10775 10774 10774 10775 10776 10778 10780 10782 10784 10787 10791 10793 10795 10797 10801 10804 10809 10813 10816 10819 10823 10826 10830 10835 10841 10846 10851 10853 10853 10855 10859 10863 10866 10871 10875 10878 10881 10885 10887 10890 10892 10896 10899 10900 10902
10758 10760 10761 10763 10765 10766 10765 10766 10769 10768 10767 10768 10770 10770 10770 10771 10773 10772 10769 10769 10770 10770 10770 10771 10773 10774 10776 10779 10783 10786 10788 10790 10793 10797 10800 10804 10807 10810 10813 10817 10822 10827 10831 10836 10840 10840 10839 10843 10849 10853 10857 10861 10864 10868 10873 10878 10881 10883 10885 10888 10890 10892 10894
10753 10755 10756 10757 10760 10761 10760 10761 10764 10762 10760 10763 10766 10766 10766 10766 10766 10765 10763 10763 10765 10765 10765 10766 10766 10767 10770 10772 10776 10779 10781 10783 10786 10790 10793 10795 10798 10801 10804 10808 10813 10817 10821 10824 10827 10829 10830 10834 10840 10844 10848 10852 10855 10859 10865 10870 10873 10876 10879 10881 10882 10884 10886
10748 10750 10750 10752 10756 10757 10754 10756 10757 10755 10754 10758 10761 10762 10762 10762 10760 10758 10757 10758 10759 10759 10759 10760 10760 10761 10763 10766 10769 10772 10774 10776 10779 10782 10785 10788 10791 10793 10796 10799 10803 10807 10810 10813 10816 10818 10820 10825 10831 10835 10839 10843 10846 10850 10855 10860 10863 10867 10871 10874 10875 10877 10878
10743 10745 10746 10748 10751 10751 10749 10749 10750 10748 10750 10755 10757 10757 10757 10755 10753 10752 10752 10752 10753 10753 10753 10753 10754 10755 10756 10759 10762 10764 10766 10769 10771 10774 10777 10780 10783 10785 10788 10790 10794 10797 10800 10802 10805 10808 10811 10816 10822 10826 10830 10834 10837 10841 10845 10850 10854 10857 10860 10864 10868 10869 10871
10738 10740 10741 10743 10744 10745 10744 10743 10743 10743 10746 10749 10751 10752 10751 10748 10745 10746 10747 10747 10747 10747 10747 10747 10747 10748 10750 10752 10754 10757 10759 10762 10764 10766 10769 10772 10775 10777 10780 10783 10785 10788 10790 10791 10794 10798 10801 10805 10810 10815 10819 10823 10827 10831 10834 10839 10842 10846 10850 10854 10858 10861 10864
10734 10735 10736 10737 10739 10740 10739 10737 10736 10738 10741 10743 10745 10747 10746 10743 10740 10740 10741 10741 10740 10740 10741 10740 10741 10742 10743 10745 10747 10750 10752 10755 10757 10759 10761 10764 10766 10768 10771 10774 10776 10778 10780 10781 10784 10788 10791 10794 10798 10803 10807 10811 10816 10820 10824 10828 10832 10836 10840 10844 10848 10851 10854
10730 10730 10730 10732 10733 10734 10734 10731 10730 10733 10736 10738 10739 10741 10741 10739 10736 10735 10735 10734 10732 10732 10733 10734 10734 10735 10737 10738 10741 10743 10746 10748 10749 10752 10754 10756 10759 10760 10762 10765 10768 10770 10771 10772 10775 10778 10780 10783 10787 10792 10796 10801 10806 10811 10814 10818 10822 10827 10831 10834 10837 10840 10843
10725 10724 10725 10727 10728 10729 10729 10726 10725 10728 10731 10732 10733 10735 10736 10734 10731 10730 10730 10728 10725 10724 10725 10726 10727 10729 10730 10732 10734 10736 10739 10741 10743 10745 10747 10749 10752 10753 10755 10756 10759 10761 10763 10764 10765 10767 10769 10772 10776 10781 10785 10790 10795 10800 10805 10809 10813 10817 10821 10825 10828 10830 10832
10719 10719 10719 10722 10723 10724 10723 10721 10721 10724 10726 10726 10727 10728 10730 10729 10726 10724 10723 10721 10719 10718 10718 10719 10720 10722 10723 10725 10727 10730 10732 10734 10736 10739 10741 10743 10745 10746 10748 10749 10750 10752 10754 10756 10757 10758 10759 10762 10766 10770 10774 10779 10784 10789 10794 10798 10802 10806 10809 10814 10817 10820 10821
10715 10714 10715 10717 10719 10719 10718 10717 10717 10719 10720 10721 10722 10722 10723 10723 10721 10718 10715 10713 10712 10712 10712 10712 10714 10715 10717 10719 10721 10724 10726 10728 10730 10732 10734 10736 10738 10739 10741 10742 10743 10744 10746 10748 10749 10750 10751 10753 10756 10759 10763 10768 10773 10778 10782 10786 10791 10794 10798 10802 10805 10808 10811
10710 10710 10710 10712 10713 10714 10714 10713 10713 10714 10715 10716 10716 10716 10716 10716 10715 10713 10710 10707 10706 10706 10707 10707 10708 10710 10712 10714 10716 10717 10719 10721 10722 10725 10727 10729 10731 10732 10734 10735 10736 10737 10738 10739 10741 10743 10744 10746 10747 10750 10753 10757 10761 10766 10770 10775 10779 10783 10787 10790 10793 10796 10799
10706 10704 10705 10707 10709 10710 10710 10709 10708 10709 10710 10711 10710 10710 10710 10709 10708 10707 10705 10702 10700 10701 10701 10702 10704 10705 10706 10709 10711 10712 10713 10714 10716 10718 10720 10722 10724 10725 10727 10728 10729 10730 10731 10732 10733 10734 10736 10738 10740 10742 10744 10747 10751 10755 10759 10763 10767 10771 10775 10778 10782 10784 10787
10701 10699 10700 10702 10704 10705 10705 10704 10704 10704 10705 10705 10705 10704 10704 10702 10701 10701 10700 10698 10696 10695 10696 10697 10698 10699 10701 10703 10705 10706 10707 10708 10710 10711 10714 10715 10717 10718 10719 10720 10721 10723 10724 10725 10725 10726 10728 10730 10732 10734 10736 10738 10740 10744 10747 10751 10755 10759 10762 10766 10770 10773 10775
10695 10694 10695 10698 10699 10700 10700 10700 10700 10701 10700 10700 10700 10699 10698 10697 10696 10695 10694 10693 10692 10691 10691 10692 10693 10694 10696 10698 10699 10700 10701 10702 10704 10706 10707 10709 10709 10710 10711 10712 10713 10714 10716 10717 10717 10718 10719 10720 10722 10725 10728 10730 10731 10734 10737 10740 10744 10748 10751 10755 10758 10761 10763